Home   Weather   Rockhampton   Past weeks
Flag for Australia

Past Weather in Rockhampton, Queensland, Australia — Yesterday and Last 2 Weeks

Now
75 °F

Clear.


Feels Like: 77 °F
Forecast: 85 / 66 °F
Wind: 8 mph from Southeast

Location: Rockhampton Airport

Current Time: Apr 18, 2019 at 8:40:51 pm

Latest Report: Apr 18, 2019 at 8:00 pm


Visibility: N/A

Pressure: 30.12 "Hg

Humidity: 74%

Dew Point: 66 °F

Location of RockhamptonLocation

Past Weather in Rockhampton — Graph

°F

Rockhampton Temperature Yesterday

Maximum temperature yesterday: 84 °F (at 3:00 pm)
Minimum temperature yesterday: 66 °F (at 3:00 am)
Average temperature yesterday: 74 °F

High & Low Weather Summary for the Past Weeks

 TemperatureHumidityPressure
High91 °F (Apr 10, 1:30 pm)94% (Apr 10, 5:30 am)30.18 "Hg (Apr 10, 5:30 am)
Low63 °F (Apr 10, 5:30 am)27% (Apr 10, 4:30 pm)29.92 "Hg (Apr 10, 2:00 pm)
Average76 °F62%30.06 "Hg
* Reported Apr 3 7:00 pm — Apr 18 7:30 pm, Rockhampton. Weather by CustomWeather, © 2019

Note: Actual official high and low records may vary slightly from our data, if they occured in-between our weather recording intervals... More about our weather records

Advertising

Rockhampton Weather History for the Previous 24 Hours

Scroll right to see more
 ConditionsComfort  
Time TempWeatherWind HumidityBarometerVisibility
7:30 pm
Thu, Apr 18
75 °FClear.7 mph69%30.12 "HgN/A
7:00 pm75 °FClear.8 mph74%30.09 "HgN/A
6:30 pm77 °FClear.9 mph65%30.09 "HgN/A
6:00 pm77 °FClear.10 mph65%30.07 "HgN/A
5:30 pm79 °FSunny.10 mph58%30.07 "HgN/A
5:00 pm79 °FSunny.12 mph58%30.04 "HgN/A
4:30 pm81 °FSunny.13 mph51%30.04 "HgN/A
4:00 pm82 °FSunny.12 mph48%30.01 "HgN/A
3:30 pm84 °FSunny.13 mph43%30.01 "Hg10 mi
3:00 pm84 °FPassing clouds.13 mph43%30.01 "HgN/A
2:30 pm84 °FPassing clouds.12 mph40%30.01 "HgN/A
2:00 pm84 °FSunny.12 mph40%30.04 "Hg10 mi
1:30 pm86 °FSunny.13 mph38%30.04 "Hg10 mi
1:00 pm84 °FSunny.14 mph40%30.04 "Hg10 mi
12:30 pm86 °FPassing clouds.13 mph40%30.07 "HgN/A
12:00 pm86 °FPassing clouds.10 mph43%30.07 "HgN/A
11:30 am81 °FScattered clouds.13 mph48%30.09 "HgN/A
11:00 am81 °FPassing clouds.15 mph51%30.09 "HgN/A
10:30 am81 °FPassing clouds.15 mph54%30.12 "HgN/A
10:00 am79 °FPassing clouds.16 mph54%30.12 "HgN/A
9:30 am79 °FPassing clouds.16 mph58%30.12 "HgN/A
9:00 am77 °FPassing clouds.12 mph61%30.12 "HgN/A
8:30 am75 °FPassing clouds.9 mph61%30.12 "HgN/A
8:00 am73 °FPassing clouds.9 mph65%30.12 "HgN/A
7:30 am70 °FSunny.8 mph73%30.09 "HgN/A
7:00 am68 °FSunny.9 mph73%30.09 "HgN/A
6:30 am68 °FSunny.9 mph73%30.09 "HgN/A
6:00 am68 °FClear.9 mph73%30.07 "HgN/A
5:30 am68 °FClear.10 mph73%30.07 "HgN/A
5:00 am68 °FClear.8 mph73%30.07 "HgN/A
4:00 am68 °FClear.8 mph73%30.07 "HgN/A
3:30 am68 °FClear.7 mph73%30.07 "HgN/A
3:00 am68 °FClear.7 mph73%30.07 "HgN/A
2:30 am68 °FClear.8 mph78%30.07 "HgN/A
2:00 am70 °FClear.8 mph69%30.07 "HgN/A
1:30 am70 °FClear.6 mph73%30.07 "HgN/A
1:00 am70 °FClear.6 mph73%30.09 "HgN/A
12:30 am72 °FPassing clouds.7 mph69%30.09 "HgN/A
12:00 am72 °FOvercast.6 mph69%30.09 "HgN/A
11:30 pm
Wed, Apr 17
72 °FOvercast.5 mph69%30.09 "HgN/A
11:00 pm72 °FOvercast.6 mph73%30.09 "HgN/A
10:30 pm73 °FPassing clouds.6 mph74%30.09 "HgN/A
10:00 pm73 °FPassing clouds.6 mph74%30.09 "HgN/A
9:30 pm73 °FPassing clouds.6 mph74%30.09 "HgN/A
9:00 pm73 °FPassing clouds.7 mph74%30.09 "HgN/A
8:30 pm75 °FOvercast.9 mph69%30.09 "HgN/A
8:00 pm75 °FOvercast.7 mph65%30.09 "HgN/A
Weather by CustomWeather, © 2019

See weather overview